EW4346 Weather Reports


time (UTC)temp
C
wind
direction
speed
KPH
gust
KPH
rain 1hr
cm
rain 24hr
cm
rain mn
cm
humidity
%
barometer
mb
20260507171607 11 142 3.2 16.1 0.00 1.45 0.00 56 1004.8
20260507171108 10 30 3.2 8.0 0.00 1.47 0.00 59 1004.9
20260507170608 10 5 4.8 12.9 0.00 1.50 0.00 55 1004.9
20260507170107 10 309 4.8 12.9 0.00 1.52 0.00 59 1004.9
20260507165608 10 184 3.2 14.5 0.00 1.52 0.00 57 1004.9
20260507165322 10 38 3.2 14.5 0.00 1.55 0.00 61 1005.1
20260507164601 10 302 4.8 12.9 0.00 1.55 0.00 61 1005.0
20260507164100 10 277 4.8 16.1 0.00 1.57 0.00 60 1005.0
20260507163602 10 92 4.8 16.1 0.00 1.57 0.00 66 1005.1
20260507163101 10 335 4.8 16.1 0.00 1.57 0.00 62 1005.3
20260507162827 10 236 3.2 11.3 0.00 1.57 0.00 64 1005.4
20260507162101 10 36 3.2 8.0 0.00 1.60 0.00 65 1005.4
20260507161601 10 196 3.2 8.0 0.00 1.60 0.00 62 1005.4
20260507161101 10 298 3.2 6.4 0.00 1.60 0.00 64 1005.4
20260507160600 10 298 3.2 8.0 0.00 1.60 0.00 64 1005.6
20260507160101 10 306 3.2 9.7 0.00 1.63 0.00 66 1005.7
20260507155832 10 350 3.2 9.7 0.00 1.63 0.00 71 1005.7
20260507155101 9 42 3.2 9.7 0.00 1.63 0.00 68 1005.7
20260507154600 8 311 3.2 9.7 0.00 1.63 0.00 70 1005.8
20260507154058 9 144 1.6 8.0 0.00 1.63 0.00 67 1005.7
20260507153558 10 327 4.8 22.5 0.00 1.65 0.00 66 1005.8
20260507153101 10 297 6.4 22.5 0.00 1.65 0.00 68 1005.8
20260507152554 10 5 4.8 14.5 0.00 1.65 0.00 70 1005.8
20260507152308 9 334 3.2 9.7 0.00 1.65 0.00 66 1005.9
20260507151754 9 207 3.2 9.7 0.00 1.65 0.00 70 1005.8
20260507151029 8 26 1.6 9.7 0.00 1.65 0.00 75 1005.9
20260507150522 8 9 3.2 12.9 0.00 1.65 0.00 78 1006.1
20260507150013 8 117 4.8 14.5 0.00 1.65 0.00 79 1006.2
20260507145506 8 311 4.8 14.5 0.00 1.65 0.00 76 1006.1
20260507145219 8 296 3.2 9.7 0.00 1.65 0.00 78 1006.0
20260507144446 8 178 3.2 9.7 0.00 1.65 0.00 77 1006.0
20260507143940 9 36 4.8 12.9 0.00 1.65 0.00 74 1006.1
20260507143657 10 263 6.4 14.5 0.00 1.65 0.00 72 1006.0
20260507142924 10 294 4.8 14.5 0.00 1.65 0.00 75 1005.8
20260507142643 10 315 4.8 16.1 0.00 1.65 0.00 75 1005.8
20260507141912 10 291 4.8 17.7 0.00 1.65 0.00 76 1005.9
20260507141358 9 350 3.2 17.7 0.00 1.65 0.00 73 1005.8
20260507140852 9 355 3.2 14.5 0.00 1.65 0.00 75 1005.8
20260507140346 8 89 3.2 14.5 0.00 1.65 0.00 79 1005.8
20260507135836 8 20 4.8 22.5 0.00 1.65 0.00 77 1005.8
20260507135547 8 232 4.8 22.5 0.00 1.65 0.00 80 1005.8
20260507134824 8 5 3.2 19.3 0.00 1.65 0.00 79 1005.9
20260507134310 8 323 3.2 19.3 0.00 1.65 0.00 81 1005.9
20260507133804 8 284 3.2 9.7 0.00 1.65 0.00 80 1006.0
20260507133523 8 275 1.6 8.0 0.00 1.65 0.00 81 1006.0
20260507132748 8 281 1.6 8.0 0.00 1.65 0.00 81 1006.1
20260507132242 7 130 1.6 9.7 0.00 1.65 0.00 85 1006.0
20260507131957 7 250 1.6 9.7 0.00 1.65 0.00 83 1006.1
20260507131222 7 27 1.6 8.0 0.00 1.65 0.00 84 1006.2
20260507130716 7 324 1.6 9.7 0.00 1.65 0.00 86 1006.2
20260507130210 7 284 1.6 9.7 0.00 1.65 0.00 84 1006.2
20260507125700 7 207 1.6 6.4 0.00 1.65 0.00 86 1006.3
20260507125421 7 121 3.2 12.9 0.00 1.65 0.00 86 1006.3
20260507124648 7 157 1.6 12.9 0.00 1.65 0.00 88 1006.2
20260507124134 6 150 0.0 4.8 0.00 1.65 0.00 86 1006.0
20260507123628 6 96 1.6 4.8 0.00 1.65 0.00 86 1005.9
20260507123347 6 119 1.6 9.7 0.00 1.65 0.00 85 1005.9
20260507122835 6 126 1.6 9.7 0.00 1.65 0.00 85 1006.0
20260507122106 7 71 3.2 12.9 0.00 1.65 0.00 86 1005.9
20260507121832 7 38 3.2 12.9 0.00 1.65 0.00 85 1006.0
20260507121104 7 49 1.6 9.7 0.00 1.65 0.00 81 1006.0
20260507120829 7 355 3.2 12.9 0.00 1.65 0.00 81 1006.0
20260507120328 7 309 3.2 12.9 0.00 1.65 0.00 83 1006.1
20260507115605 7 355 3.2 11.3 0.00 1.65 0.00 81 1006.1
20260507115104 7 14 1.6 9.7 0.00 1.65 0.00 81 1006.2
20260507114604 7 355 1.6 9.7 0.00 1.65 0.00 82 1006.3
20260507114328 7 334 0.0 8.0 0.00 1.65 0.00 83 1006.2
20260507113322 7 5 1.6 6.4 0.00 1.65 0.00 84 1006.0
20260507112556 6 24 0.0 6.4 0.00 1.65 0.00 84 1006.0
20260507112053 6 5 0.0 3.2 0.00 1.65 0.00 86 1006.1
20260507111554 6 326 0.0 4.8 0.00 1.65 0.00 87 1006.0
20260507111055 6 312 1.6 11.3 0.00 1.65 0.00 87 1006.0
20260507110549 6 335 1.6 11.3 0.00 1.65 0.00 88 1006.0
20260507110043 5 18 1.6 6.4 0.00 1.65 0.00 89 1006.0
20260507105808 5 311 1.6 16.1 0.00 1.65 0.00 90 1006.0
20260507105532 5 0 1.6 16.1 0.00 1.65 0.00 90 1006.1
20260507104804 5 319 1.6 12.9 0.00 1.65 0.00 92 1006.0
20260507104043 4 336 1.6 12.9 0.00 1.65 0.00 93 1006.0
20260507103804 4 329 0.0 6.4 0.00 1.65 0.00 95 1005.8
20260507103303 3 355 0.0 4.8 0.00 1.65 0.00 96 1005.8
20260507102801 3 355 0.0 0.0 0.00 1.65 0.00 96 1005.6
20260507102042 3 355 0.0 0.0 0.00 1.65 0.00 96 1005.6
20260507101543 3 355 0.0 0.0 0.00 1.65 0.00 96 1005.7
20260507101039 3 355 0.0 4.8 0.00 1.65 0.00 96 1005.7
20260507100541 2 355 0.0 4.8 0.00 1.65 0.00 96 1005.8
20260507100300 2 311 0.0 3.2 0.00 1.65 0.00 96 1005.7
20260507095531 2 314 0.0 4.8 0.00 1.65 0.00 96 1005.6
20260507095032 2 344 0.0 4.8 0.00 1.65 0.00 96 1005.6
20260507094755 2 19 0.0 0.0 0.00 1.65 0.00 95 1005.7
20260507094031 2 19 0.0 8.0 0.00 1.65 0.00 95 1005.8
20260507093532 2 19 0.0 8.0 0.00 1.65 0.00 94 1006.0
20260507093032 2 321 0.0 0.0 0.00 1.65 0.00 93 1006.1
20260507092752 3 321 0.0 4.8 0.00 1.65 0.00 93 1006.0
20260507092031 3 321 0.0 4.8 0.00 1.65 0.00 93 1006.0
20260507091533 3 306 0.0 0.0 0.00 1.65 0.00 93 1005.8
20260507091033 3 306 0.0 1.6 0.00 1.65 0.00 94 1005.8
20260507090533 3 306 0.0 1.6 0.00 1.65 0.00 93 1005.9
20260507090033 3 296 0.0 0.0 0.00 1.65 0.00 94 1005.9
20260507090012 3 323 0.0 0.0 0.00 1.65 0.00 95 1005.9
20260507085033 3 304 0.0 0.0 0.00 1.65 0.00 95 1005.9
20260507084530 3 315 0.0 4.8 0.00 1.65 0.00 96 1005.7
20260507084025 3 315 0.0 4.8 0.00 1.65 0.00 96 1005.7
20260507083515 3 325 0.0 0.0 0.00 1.65 0.00 97 1005.7
20260507083009 3 325 0.0 1.6 0.00 1.65 0.00 97 1005.7
20260507082918 3 325 0.0 4.8 0.00 1.65 0.00 97 1005.7
20260507082538 3 325 0.0 4.8 0.00 1.65 0.00 97 1005.7
20260507081443 3 325 0.0 3.2 0.00 1.65 0.00 97 1005.7
20260507081202 3 326 0.0 0.0 0.00 1.65 0.00 97 1005.7
20260507080428 3 327 0.0 0.0 0.00 1.65 0.00 97 1005.7
20260507075922 3 327 0.0 0.0 0.00 1.65 0.00 97 1005.7
20260507075633 3 327 0.0 0.0 0.00 1.65 0.00 97 1005.7
20260507074901 3 327 0.0 0.0 0.00 1.65 0.00 97 1005.5
20260507074355 4 327 0.0 0.0 0.00 1.65 0.00 97 1005.4
20260507074115 4 327 0.0 3.2 0.00 1.65 0.00 97 1005.1
20260507073339 4 327 0.0 8.0 0.00 1.65 0.00 97 1004.9
20260507072833 4 288 0.0 3.2 0.00 1.65 0.00 98 1004.9
20260507072327 4 289 0.0 3.2 0.00 1.65 0.00 98 1004.9
20260507071813 4 288 1.6 4.8 0.00 1.65 0.00 97 1004.8
20260507071534 4 289 1.6 4.8 0.00 1.65 0.00 97 1004.8
20260507071023 4 289 3.2 6.4 0.00 1.65 0.00 97 1004.8
20260507070251 4 292 3.2 6.4 0.00 1.65 0.00 97 1005.0
20260507065745 4 271 1.6 6.4 0.00 1.65 0.00 97 1005.0
20260507065240 4 296 1.6 6.4 0.00 1.65 0.00 97 1005.1
20260507064724 4 284 3.2 8.0 0.00 1.65 0.00 97 1005.0
20260507064219 4 262 3.2 8.0 0.00 1.65 0.00 97 1005.1
20260507063713 4 293 1.6 6.4 0.00 1.65 0.00 97 1005.3
20260507063424 4 289 1.6 4.8 0.00 1.65 0.00 97 1005.4
20260507062657 4 296 1.6 6.4 0.00 1.65 0.00 98 1004.9
20260507062151 4 296 1.6 6.4 0.00 1.65 0.00 98 1004.7
20260507061637 5 285 1.6 8.0 0.00 1.65 0.00 98 1005.1
20260507061131 5 290 1.6 8.0 0.00 1.65 0.00 98 1005.3
20260507060625 5 316 1.6 6.4 0.00 1.65 0.00 98 1005.4
20260507060115 5 284 3.2 8.0 0.00 1.65 0.00 98 1005.4
20260507055610 5 276 1.6 8.0 0.00 1.65 0.00 98 1004.9
20260507055103 5 276 3.2 6.4 0.00 1.65 0.00 98 1005.0
20260507054550 5 315 3.2 11.3 0.00 1.65 0.00 99 1005.1
20260507054043 5 296 3.2 11.3 0.00 1.65 0.00 99 1005.0
20260507053758 5 284 1.6 9.7 0.00 1.65 0.00 99 1005.0
20260507053027 5 281 0.0 4.8 0.00 1.65 0.00 98 1005.0
20260507052750 5 23 0.0 3.2 0.00 1.65 0.00 98 1005.1
20260507052015 5 324 1.6 9.7 0.00 1.65 0.00 98 1005.4
20260507051955 5 13 1.6 9.7 0.00 1.65 0.00 98 1005.3
20260507051220 5 322 1.6 9.7 0.00 1.65 0.00 99 1005.1
20260507050449 5 72 1.6 8.0 0.00 1.65 0.00 99 1005.0
20260507050206 5 199 0.0 9.7 0.00 1.65 0.00 99 1004.8
20260507045433 5 30 0.0 8.0 0.00 1.65 0.00 99 1005.1
20260507044927 5 332 0.0 0.0 0.00 1.65 0.00 99 1005.0
20260507044413 5 332 0.0 0.0 0.00 1.65 0.00 99 1005.0
20260507043908 5 332 0.0 0.0 0.00 1.65 0.00 99 1004.9
20260507043620 5 332 0.0 0.0 0.00 1.65 0.00 99 1004.8
20260507042851 5 332 0.0 8.0 0.00 1.65 0.00 99 1004.6
20260507042345 5 332 1.6 8.0 0.00 1.65 0.00 98 1004.5
20260507041840 5 329 3.2 14.5 0.00 1.65 0.00 98 1004.3
20260507041325 5 319 3.2 14.5 0.00 1.65 0.00 98 1004.4
20260507040820 5 355 1.6 8.0 0.00 1.65 0.00 98 1004.6
20260507040313 5 28 3.2 12.9 0.00 1.65 0.00 98 1004.9
20260507035804 5 328 3.2 12.9 0.03 1.65 1.65 99 1004.9
20260507035258 5 297 1.6 11.3 0.03 1.65 1.65 99 1005.1
20260507034753 5 296 1.6 11.3 0.03 1.65 1.65 99 1005.1
20260507034238 5 311 3.2 8.0 0.03 1.65 1.65 99 1005.1
20260507033733 5 326 1.6 8.0 0.03 1.65 1.65 99 1005.0
20260507033226 5 291 1.6 4.8 0.03 1.65 1.65 99 1004.9
20260507032717 5 294 3.2 14.5 0.03 1.65 1.65 99 1004.9
20260507032210 5 313 3.2 14.5 0.03 1.65 1.65 98 1004.9
20260507031704 5 319 3.2 14.5 0.03 1.65 1.65 98 1004.8
20260507031150 5 315 3.2 14.5 0.03 1.65 1.65 98 1004.7
20260507030644 6 306 4.8 22.5 0.03 1.65 1.65 98 1004.9
20260507030138 5 296 6.4 22.5 0.03 1.65 1.65 98 1004.9
20260507025628 6 19 4.8 19.3 0.03 1.63 1.63 98 1004.9
20260507025122 6 15 4.8 19.3 0.03 1.63 1.63 98 1005.1
20260507024616 6 351 4.8 19.3 0.03 1.63 1.63 98 1005.1
20260507024547 6 323 4.8 17.7 0.03 1.63 1.63 98 1005.0
20260507023556 6 293 6.4 17.7 0.05 1.63 1.63 98 1005.0
20260507023050 6 266 4.8 17.7 0.05 1.63 1.63 98 1005.0
20260507022540 6 292 4.8 17.7 0.05 1.63 1.63 98 1004.9
20260507022034 6 254 4.8 17.7 0.08 1.63 1.63 98 1004.8
20260507021528 6 295 4.8 19.3 0.08 1.63 1.63 98 1004.9
20260507021018 6 292 3.2 19.3 0.10 1.63 1.63 98 1004.8
20260507020512 6 318 3.2 19.3 0.10 1.63 1.63 98 1004.9
20260507020007 7 290 1.6 14.5 0.10 1.63 1.63 98 1004.9
20260507015710 7 281 0.0 9.7 0.08 1.60 1.60 99 1004.8
20260507014946 7 290 0.0 6.4 0.08 1.60 1.60 99 1004.9
20260507014440 7 290 0.0 6.4 0.10 1.60 1.60 99 1004.8
20260507013930 7 315 0.0 6.4 0.10 1.60 1.60 99 1004.7
20260507013425 7 306 0.0 12.9 0.08 1.57 1.57 99 1004.8
20260507012918 8 303 0.0 12.9 0.08 1.57 1.57 99 1004.5
20260507012627 8 304 0.0 4.8 0.05 1.55 1.55 99 1004.4
20260507012139 8 234 0.0 0.0 0.05 1.55 1.55 99 1004.3
20260507010859 8 321 0.0 3.2 0.03 1.52 1.52 99 1004.2
20260507010357 9 311 0.0 1.6 0.03 1.52 1.52 99 1004.2
20260507005858 9 311 0.0 0.0 0.03 1.52 1.52 99 1004.3
20260507005357 9 310 0.0 0.0 0.03 1.52 1.52 99 1004.1
20260507004859 10 301 0.0 0.0 0.03 1.52 1.52 99 1004.4
20260507004619 10 317 0.0 0.0 0.00 1.50 1.50 100 1004.2
20260507003856 10 313 0.0 0.0 0.00 1.50 1.50 100 1004.0
20260507002349 10 279 0.0 3.2 0.00 1.50 1.50 99 1003.9
20260507001848 10 204 0.0 0.0 0.00 1.50 1.50 100 1004.0
20260507001347 10 204 0.0 1.6 0.00 1.50 1.50 100 1003.8
20260507001118 10 204 0.0 4.8 0.00 1.50 1.50 100 1003.5
20260507000343 10 205 0.0 4.8 0.00 1.50 1.50 100 1003.7
20260506235842 10 222 0.0 4.8 0.00 1.50 1.50 99 1003.6
20260506235610 10 11 0.0 3.2 0.00 1.50 1.50 99 1003.5
20260506233838 11 145 0.0 1.6 0.00 1.50 1.50 100 1003.1
20260506233336 11 145 0.0 1.6 0.00 1.50 1.50 100 1003.2
20260506232837 12 145 0.0 1.6 0.00 1.50 1.50 100 1003.1
20260506232335 12 145 0.0 3.2 0.10 1.50 1.50 100 1003.1
20260506231838 12 146 0.0 3.2 0.20 1.50 1.50 100 1003.0
20260506231337 12 175 0.0 3.2 0.25 1.50 1.50 100 1003.1
20260506230837 13 150 0.0 3.2 0.33 1.50 1.50 100 1003.1
20260506230336 13 165 0.0 0.0 0.36 1.50 1.50 100 1003.1
20260506225836 13 112 0.0 0.0 0.36 1.50 1.50 100 1003.0
20260506225336 13 115 0.0 0.0 0.38 1.50 1.50 100 1003.0
20260506224836 13 115 0.0 1.6 0.46 1.50 1.50 100 1002.9
20260506224336 13 115 0.0 1.6 0.46 1.50 1.50 100 1002.8
20260506223835 13 83 0.0 3.2 0.48 1.50 1.50 100 1002.9
20260506223337 13 33 0.0 11.3 0.51 1.50 1.50 100 1002.9
20260506223054 13 355 0.0 11.3 0.56 1.50 1.50 100 1002.9
20260506222336 13 294 0.0 9.7 0.53 1.40 1.42 100 1002.9
20260506221834 13 250 1.6 9.7 0.46 1.30 1.30 100 1002.8
20260506221335 13 132 3.2 11.3 0.43 1.24 1.24 100 1002.5
20260506221309 13 182 1.6 11.3 0.38 1.17 1.17 100 1002.6
20260506220334 13 186 1.6 11.3 0.38 1.17 1.14 100 1002.6
20260506215834 13 136 1.6 11.3 0.38 1.22 1.14 100 1002.6
20260506215336 13 131 0.0 9.7 0.36 1.24 1.12 100 1002.8
20260506214821 13 134 1.6 9.7 0.30 1.19 1.04 100 1002.9
20260506214315 13 143 1.6 12.9 0.30 1.22 1.04 100 1002.8
20260506213809 13 172 3.2 12.9 0.30 1.22 1.02 100 1002.9
20260506213259 13 131 3.2 12.9 0.28 1.22 0.99 100 1002.9
20260506212753 13 169 1.6 9.7 0.20 1.14 0.94 100 1003.0
20260506212734 13 109 3.2 11.3 0.15 1.09 0.86 100 1003.1
20260506211733 13 149 3.2 17.7 0.13 1.07 0.84 100 1003.1
20260506211227 13 167 3.2 16.1 0.13 1.04 0.81 100 1003.0
20260506210944 13 159 3.2 11.3 0.08 0.99 0.79 100 1003.1
20260506210212 13 138 3.2 11.3 0.08 0.99 0.76 100 1003.2
20260506205706 13 155 3.2 11.3 0.08 0.99 0.76 100 1003.2
20260506205159 13 140 3.2 9.7 0.08 0.99 0.76 100 1003.3
20260506204646 13 148 3.2 12.9 0.05 0.97 0.74 100 1003.3
20260506204139 13 132 3.2 12.9 0.05 0.97 0.74 100 1003.4
20260506203633 13 160 3.2 11.3 0.03 0.94 0.71 100 1003.3
20260506203123 13 138 3.2 12.9 0.05 0.94 0.71 100 1003.4
20260506202837 13 189 3.2 12.9 0.05 0.94 0.71 100 1003.5
20260506202111 13 167 3.2 11.3 0.05 0.94 0.71 100 1003.5
20260506201557 13 159 3.2 14.5 0.05 0.91 0.71 100 1003.6
20260506201051 13 143 3.2 14.5 0.05 0.91 0.69 100 1003.7
20260506200544 13 168 3.2 14.5 0.08 0.91 0.69 100 1003.7
20260506200035 13 128 3.2 12.9 0.08 0.91 0.69 100 1003.7
20260506195529 13 163 3.2 11.3 0.10 0.91 0.69 100 1003.8
20260506195023 13 136 3.2 11.3 0.10 0.91 0.69 100 1003.8
20260506194509 13 130 1.6 11.3 0.13 0.91 0.69 100 1003.9
20260506194003 13 154 1.6 11.3 0.15 0.91 0.69 100 1003.9
20260506193457 13 129 1.6 8.0 0.13 0.89 0.66 100 1004.0
20260506192947 13 117 1.6 11.3 0.15 0.89 0.66 100 1004.1
20260506192442 13 135 3.2 14.5 0.18 0.89 0.66 100 1004.1
20260506192156 13 163 3.2 17.7 0.20 0.89 0.66 100 1004.2
20260506191432 13 161 3.2 17.7 0.18 0.86 0.64 100 1004.2
20260506190933 13 147 3.2 12.9 0.20 0.86 0.64 100 1004.2
20260506190433 13 161 3.2 11.3 0.20 0.84 0.61 100 1004.2
20260506190156 13 148 3.2 11.3 0.25 0.84 0.61 100 1004.2
20260506185431 13 153 4.8 14.5 0.25 0.81 0.58 100 1004.2
20260506184931 13 154 4.8 16.1 0.25 0.81 0.58 100 1004.4
20260506184434 13 150 4.8 16.1 0.25 0.79 0.56 100 1004.3
20260506183938 13 160 4.8 12.9 0.25 0.76 0.53 100 1004.3
20260506183431 13 135 3.2 12.9 0.28 0.76 0.53 100 1004.3
20260506182931 13 140 1.6 9.7 0.28 0.74 0.51 100 1004.5
20260506182926 13 157 1.6 9.7 0.28 0.71 0.48 100 1004.5
20260506181927 13 133 1.6 12.9 0.25 0.69 0.46 100 1004.6
20260506181655 13 186 1.6 12.9 0.28 0.69 0.46 100 1004.7
20260506180920 13 146 1.6 11.3 0.28 0.66 0.43 100 1004.8
20260506180414 13 160 1.6 11.3 0.25 0.64 0.41 100 1004.9
20260506175912 13 130 1.6 11.3 0.23 0.58 0.36 99 1005.0
20260506175413 13 159 1.6 11.3 0.20 0.56 0.33 99 1005.0
20260506173910 13 178 0.0 6.4 0.20 0.51 0.28 99 1005.1
20260506173412 13 178 0.0 0.0 0.18 0.48 0.25 99 1005.1
20260506172909 13 178 0.0 0.0 0.15 0.46 0.23 99 1005.3